Weather History for Avoca, PA

Change the Weather History Date:

Friday, February 15, 2013

  Actual Average Record
Temperature  
Mean Temperature 39 °F 29 °F  
Max Temperature 46 °F 37 °F 68 °F (1954)
Min Temperature 32 °F 21 °F -13 °F (1943)
Degree Days  
Heating Degree Days 26 36  
Month to date heating degree days 560 563  
Since 1 July heating degree days 3777 4154  
Cooling Degree Days 0 0  
Month to date cooling degree days 0 0  
Year to date cooling degree days 0 0  
Moisture  
Dew Point 28 °F    
Average Humidity 70    
Maximum Humidity 100    
Minimum Humidity 40    
Precipitation  
Precipitation 0.10 in 0.07 in 1.10 in (1984)
Month to date precipitation 0.60 1.13  
Year to date precipitation 2.62 3.50  
Sea Level Pressure  
Sea Level Pressure 29.95 in    
Wind  
Wind Speed 7 mph (WSW)    
Max Wind Speed 20 mph    
Max Gust Speed 26 mph    
Visibility 6 miles    
Events Rain , Snow    
T = Trace of Precipitation, MM = Missing Value Source: NWS Daily Summary

Daily Weather History Graph

Daily Weather History Graph

Search for Another Location

Airport:

Trip Planner

Search our weather history database for the weather conditions in past years. The results will help you decide how hot, cold, wet, or windy it might be!

Date:

Astronomy

Feb. 15, 2013 Rise Set
Actual Time 6:57 AM EST 5:37 PM EST
Civil Twilight 6:29 AM EST 6:05 PM EST
Nautical Twilight 5:56 AM EST 6:37 PM EST
Astronomical Twilight 5:24 AM EST 7:09 PM EST
Moon 9:28 AM EST (2/15) 11:40 PM EST (2/15)
Length of Visible Light 11h 36m
Length of Day
10h 39m
Waxing Crescent, 30% of the Moon is Illuminated
Feb 15
Waxing Crescent
Feb 17
First Quarter
Feb 25
Full
Mar 4
Last Quarter
Mar 11
New

Hourly Weather History & Observations

Time (EST) Temp. Windchill Dew Point Humidity Pressure Visibility Wind Dir Wind Speed Gust Speed Precip Events Conditions
12:54 AM 36.0 °F 32.1 °F 26.1 °F 67% 29.93 in 7.0 mi South 4.6 mph - N/A   Overcast
1:54 AM 37.0 °F 30.4 °F 25.0 °F 62% 29.94 in 7.0 mi SW 9.2 mph - N/A   Overcast
2:54 AM 37.0 °F 33.3 °F 25.0 °F 62% 29.92 in 8.0 mi South 4.6 mph - 0.00 in   Mostly Cloudy
3:54 AM 36.0 °F 33.3 °F 24.1 °F 62% 29.91 in 9.0 mi SSW 3.5 mph - N/A   Partly Cloudy
4:54 AM 35.1 °F - 25.0 °F 67% 29.92 in 9.0 mi Calm Calm - N/A   Partly Cloudy
5:54 AM 34.0 °F - 25.0 °F 70% 29.91 in 10.0 mi Calm Calm - N/A   Mostly Cloudy
6:54 AM 33.1 °F - 25.0 °F 72% 29.92 in 9.0 mi Calm Calm - N/A   Partly Cloudy
7:54 AM 37.0 °F - 26.1 °F 65% 29.94 in 8.0 mi Calm Calm - N/A   Clear
8:54 AM 41.0 °F 35.2 °F 28.0 °F 60% 29.95 in 9.0 mi WSW 9.2 mph - N/A   Clear
9:54 AM 42.1 °F 34.9 °F 28.0 °F 58% 29.95 in 10.0 mi WSW 13.8 mph 26.5 mph N/A   Clear
10:54 AM 44.1 °F 36.8 °F 28.9 °F 55% 29.96 in 10.0 mi West 16.1 mph 20.7 mph N/A   Partly Cloudy
11:54 AM 43.0 °F 35.1 °F 28.9 °F 58% 29.96 in 10.0 mi WSW 17.3 mph 24.2 mph N/A   Partly Cloudy
12:54 PM 45.0 °F 38.2 °F 26.1 °F 48% 29.93 in 10.0 mi SW 15.0 mph 25.3 mph N/A   Partly Cloudy
1:54 PM 44.1 °F 39.0 °F 25.0 °F 47% 29.93 in 10.0 mi WSW 9.2 mph - N/A   Mostly Cloudy
2:54 PM 44.1 °F 37.4 °F 21.9 °F 42% 29.93 in 10.0 mi WSW 13.8 mph - N/A   Clear
3:54 PM 43.0 °F 37.7 °F 23.0 °F 45% 29.94 in 10.0 mi WSW 9.2 mph - N/A   Mostly Cloudy
4:54 PM 43.0 °F 38.2 °F 21.9 °F 43% 29.94 in 10.0 mi SW 8.1 mph - N/A   Overcast
5:54 PM 42.1 °F 36.6 °F 23.0 °F 47% 29.95 in 10.0 mi WSW 9.2 mph - N/A   Overcast
6:54 PM 41.0 °F 37.1 °F 24.1 °F 51% 29.95 in 10.0 mi West 5.8 mph - N/A   Overcast
7:54 PM 37.9 °F 30.5 °F 28.0 °F 68% 29.96 in 10.0 mi West 11.5 mph - 0.00 in Rain Light Rain
8:11 PM 35.6 °F 28.6 °F 30.2 °F 81% 29.95 in 9.0 mi WNW 9.2 mph - 0.00 in Snow Light Snow
8:50 PM 33.8 °F 28.6 °F 30.2 °F 87% 29.95 in 2.0 mi NW 5.8 mph - 0.01 in Snow Light Snow
8:54 PM 34.0 °F 28.8 °F 30.9 °F 89% 29.97 in 1.8 mi WNW 5.8 mph - 0.01 in Snow Light Snow
9:01 PM 33.8 °F 30.8 °F 30.2 °F 87% 29.96 in 1.2 mi West 3.5 mph - 0.01 in Snow Light Snow
9:33 PM 33.8 °F - 32.0 °F 93% 29.96 in 1.0 mi Calm Calm - 0.03 in Snow Light Snow
9:44 PM 33.8 °F - 32.0 °F 93% 29.95 in 0.8 mi Calm Calm - 0.04 in Snow Light Snow
9:54 PM 32.0 °F 28.7 °F 32.0 °F 100% 29.97 in 0.8 mi SSW 3.5 mph - 0.04 in Snow Light Snow
10:47 PM 32.0 °F - 32.0 °F 100% 29.97 in 0.8 mi Calm Calm - 0.04 in Snow Light Snow
10:54 PM 32.0 °F - 30.9 °F 96% 29.99 in 1.0 mi Calm Calm - 0.05 in Snow Light Snow
11:01 PM 32.0 °F - 30.2 °F 93% 29.96 in 1.2 mi Calm Calm - 0.00 in Snow Light Snow
11:10 PM 32.0 °F - 30.2 °F 93% 29.96 in 1.5 mi Calm Calm - 0.00 in Snow Light Snow
11:19 PM 32.0 °F - 30.2 °F 93% 29.97 in 2.0 mi Calm Calm - 0.00 in Snow Light Snow
11:28 PM 33.8 °F - 30.2 °F 87% 29.96 in 2.5 mi Calm Calm - 0.00 in Snow Light Snow
11:35 PM 32.0 °F - 30.2 °F 93% 29.96 in 3.0 mi Calm Calm - 0.00 in   Overcast
11:46 PM 32.0 °F - 30.2 °F 93% 29.96 in 2.5 mi Calm Calm - 0.00 in Snow Light Snow
11:54 PM 32.0 °F - 30.9 °F 96% 29.98 in 2.0 mi Calm Calm - 0.00 in Snow Light Snow